[Date Prev][Date Next][Thread Prev][Thread Next] - [Date Index][Thread Index][Author Index]
2 Line ISS Keps 8-28
- Subject: [sarex] 2 Line ISS Keps 8-28
- From: "Dave Larsen PhD" <doc@xxxxxxxxxxx>
- Date: Thu, 28 Aug 2003 05:33:43 -0700
ISS
1 25544U 98067A 03240.39406005 .00016905 00000-0 19754-3 0 4081
2 25544 51.6341 16.6919 0007163 176.1781 231.9618 15.61697926272285
----
Via the sarex mailing list at AMSAT.ORG courtesy of AMSAT-NA.
To unsubscribe, send "unsubscribe sarex" to Majordomo@amsat.org
AMSAT Home